Location: Unspecified
(0.0000°N, 0.0000°E)
Time: 22:01:39
(UTC+02:00)

GPS 2-15 Rocket1 - Visible Passes

Search period start: 06 July 2015 00:00
Search period end: 16 July 2015 00:00
Orbit: 626 x 678 km, 19.8° (Epoch: 05 July)

Date Brightness Start Highest point End Pass type
(mag) Time Alt. Az. Time Alt. Az. Time Alt. Az.
06 Jul 6.0 22:29:59 10° N 22:30:03 10° N 22:30:03 10° N visible
07 Jul 6.2 22:54:54 10° NNW 22:55:02 10° NNW 22:55:02 10° NNW visible
08 Jul 5.7 21:38:56 10° N 21:40:09 11° NNE 21:41:27 10° NNE visible
09 Jul 5.3 22:04:11 10° NNW 22:07:20 17° NNE 22:07:20 17° NNE visible
10 Jul 5.6 20:48:05 10° N 20:49:38 11° NNE 20:51:18 10° NNE visible
10 Jul 5.3 22:30:11 10° NW 22:32:20 21° NNW 22:32:20 21° NNW visible
11 Jul 5.2 21:13:30 10° NNW 21:16:47 18° NNE 21:19:41 12° NE visible
11 Jul 6.0 22:56:33 10° NW 22:57:20 14° NW 22:57:20 14° NW visible
12 Jul 4.4 21:39:33 10° NW 21:43:49 31° NNE 21:44:42 29° NE visible
13 Jul 3.9 22:05:58 10° WNW 22:09:46 48° NNW 22:09:46 48° NNW visible
14 Jul 5.5 06:54:03 10° S 06:55:12 11° S 06:56:26 10° SSE visible
14 Jul 4.3 20:48:57 10° NW 20:53:14 33° NNE 20:57:10 12° E visible
14 Jul 5.2 22:32:44 10° WNW 22:34:50 26° WNW 22:34:50 26° WNW visible
15 Jul 5.2 07:19:16 10° SSW 07:22:24 17° SSE 07:25:33 10° SE visible
15 Jul 3.3 21:15:24 10° WNW 21:20:08 64° NNE 21:22:16 32° E visible
15 Jul 6.3 22:59:56 10° W 22:59:57 10° W 22:59:57 10° W visible
